Location: Unspecified
(40.7945°N, 0.0000°E)
Time: 08:44:17
(UTC+00:00)

deb Explorer IX - Pass Details

Date: 29 January 2021
Orbit: 537 x 1103 km, 38.8° (Epoch: 23 February)

Event Time Altitude Azimuth Distance (km) Brightness Sun altitude
Rises 17:52:03 0° 268° (W) 3,824 ? -7.6°
Reaches altitude 10° 17:54:54 10° 267° (W) 2,813 ? -8.1°
Maximum altitude 18:01:43 75° 183° (S) 961 ? -9.4°
Enters shadow 18:07:29 11° 99° (E) 2,400 ? -10.4°
